Location: ??????????
(44.2167°N, 135.5333°E)
Time: 21:36:34
(UTC+00:00)

Cosmos 1455 - Pass Details

Date: 15 June 2025
Orbit: 316 x 320 km, 82.5° (Epoch: 08 July)

Event Time Altitude Azimuth Distance (km) Brightness Sun altitude
Rises 12:19:28 0° 343° (NNW) 2,074 6.7 -13.3°
Reaches altitude 10° 12:21:27 10° 334° (NNW) 1,240 5.5 -13.5°
Maximum altitude 12:23:55 34° 266° (W) 560 2.7 -13.8°
Enters shadow 12:25:42 16° 206° (SSW) 974 3.3 -13.9°
